This is the latest recevied weather packets stored in our database for station/object N5ATR. If no packets are shown the sender has not sent any weather packets the latest 10 day(s).
| Time | Temp. | Humidity | Pressure | Rain* | Wind** | Luminosity | Snow |
|---|---|---|---|---|---|---|---|
| 1788699986 | 19.44° C | 49% | 1022.8 hPa | 0 mm | - | 25 W/m² | - |
| 1788699681 | 17.78° C | 50% | 1022.4 hPa | 0 mm | - | 10 W/m² | - |
| 1788699379 | 17.78° C | 51% | 1022.6 hPa | 0 mm | - | 7 W/m² | - |
| 1788699078 | 17.78° C | 51% | 1022.3 hPa | 0 mm | - | 4 W/m² | - |
| 1788698774 | 17.78° C | 52% | 1022.3 hPa | 0 mm | - | 2 W/m² | - |
| 1788698469 | 17.22° C | 54% | 1022.3 hPa | 0 mm | - | 1 W/m² | - |
| 1788698168 | 17.22° C | 55% | 1022.5 hPa | 0 mm | - | 0 W/m² | - |
| 1788697863 | 17.22° C | 55% | 1022.3 hPa | 0 mm | - | 0 W/m² | - |
| 1788697562 | 17.22° C | 55% | 1022 hPa | 0 mm | - | 0 W/m² | - |
| 1788697258 | 17.78° C | 54% | 1021.9 hPa | 0 mm | - | 0 W/m² | - |
| 1788696954 | 17.78° C | 54% | 1022.3 hPa | 0 mm | - | 0 W/m² | - |
| 1788696651 | 17.78° C | 54% | 1022 hPa | 0 mm | - | 0 W/m² | - |
| 1788696345 | 17.78° C | 53% | 1021.9 hPa | 0 mm | - | 0 W/m² | - |
| 1788696043 | 17.78° C | 53% | 1022 hPa | 0 mm | - | 0 W/m² | - |
| 1788695743 | 17.78° C | 54% | 1022 hPa | 0 mm | - | 0 W/m² | - |
| 1788695438 | 17.78° C | 53% | 1021.9 hPa | 0 mm | - | 0 W/m² | - |
| 1788695138 | 17.78° C | 54% | 1022.3 hPa | 0 mm | - | 0 W/m² | - |
| 1788694834 | 18.33° C | 52% | 1021.9 hPa | 0 mm | - | 0 W/m² | - |
| 1788694532 | 18.89° C | 48% | 1022.2 hPa | 0 mm | - | 0 W/m² | - |
| 1788694231 | 18.89° C | 49% | 1022.2 hPa | 0 mm | - | 0 W/m² | - |
| 1788693923 | 18.89° C | 49% | 1022.2 hPa | 0 mm | - | 0 W/m² | - |
| 1788693619 | 18.33° C | 50% | 1021.9 hPa | 0 mm | - | 0 W/m² | - |
| 1788693318 | 17.78° C | 53% | 1022.3 hPa | 0 mm | - | 0 W/m² | - |
| 1788693014 | 17.78° C | 53% | 1022 hPa | 0 mm | - | 0 W/m² | - |
| 1788692709 | 17.78° C | 54% | 1022.2 hPa | 0 mm | - | 0 W/m² | - |
* Rain latest hour (hover to see other rain measurements)
** Current wind speed in m/s (hover to see current wind gust speed)